Regional Weather Roundup
Issued by NWS

Home | Current Version | Previous Version | Graphics & Text | Print | Product List | Glossary On
Versions: 1 2 3 4 5 6 7 8 9 10 11 12 13 14 15 16 17 18 19 20 21 22 23 24 25 26
000
ASUS45 KCYS 251910
RWRWY

WYOMING REGIONAL WEATHER ROUNDUP
NATIONAL WEATHER SERVICE CHEYENNE WY
100 PM MDT WED MAY 25 2016

NOTE:  "FAIR" INDICATES FEW OR NO CLOUDS BELOW 12,000 FEET
WITH NO SIGNIFICANT WEATHER AND/OR OBSTRUCTIONS TO VISIBILITY.

WYZ001-252000-
YELLOWSTONE NATIONAL PARK

CITY           SKY/WX    TMP DP  RH WIND       PRES   REMARKS
LK YELLOWSTONE   N/A     42  37  82 VRB3      30.06S
W YELLOWSTONE  NOT AVBL

$$
WYZ002>013-054>058-071-098>099-252000-
NORTHERN WYOMING

CITY           SKY/WX    TMP DP  RH WIND       PRES   REMARKS
JACKSON        PTSUNNY   50  43  76 S9        30.03F
CODY           PTSUNNY   55  45  67 NE9       29.93S
GREYBULL       PTSUNNY   61  40  45 CALM      29.90S
WORLAND        CLOUDY    61  43  51 N8        29.91S THUNDER
SHERIDAN       RAIN      49  46  90 NW14      29.94R FOG
BUFFALO        CLOUDY    53  44  71 S15       29.95R
GILLETTE       PTSUNNY   56  46  69 W6        29.93S
HULETT         CLOUDY    54  45  71 CALM      29.95S THUNDER
NEWCASTLE      FAIR      59  41  51 NW13G23   29.93S

$$
WYZ014>020-022>026-101>103-252000-
CENTRAL WYOMING

CITY           SKY/WX    TMP DP  RH WIND       PRES   REMARKS
BIG PINEY      PTSUNNY   51  39  63 NE14      30.07S
PINEDALE       LGT RAIN  37  37 100 CALM      30.09F
DUBOIS         FAIR      52  27  37 W17G31    30.00F
LANDER         FAIR      62  35  36 N8        29.92F
RIVERTON       PTSUNNY   62  34  35 VRB3      29.94F
CASPER         TSTM      57  37  47 W12G21    29.94S
DOUGLAS          N/A    N/A N/A N/A MISG      29.93F

$$
WYZ021-027>030-104>119-252000-
SOUTHERN WYOMING

CITY           SKY/WX    TMP DP  RH WIND       PRES   REMARKS
EVANSTON       FAIR      54  34  46 W17       30.07F
KEMMERER         N/A     50  36  57 W8        30.10F
FORT BRIDGER   CLOUDY    52  39  62 N20       30.11S
ROCK SPRINGS   LGT RAIN  45  38  76 SW20G25   30.07R
DIXON          FAIR      60  25  26 SW16G24   30.09F
RAWLINS        PTSUNNY   51  34  52 SW18G25   30.06R
SARATOGA       LGT RAIN  50  32  50 W21G44    30.10R
LARAMIE        FAIR      60  20  21 SW23G36   30.04F
CHEYENNE       CLOUDY    60  35  39 S18G25    30.01S
TORRINGTON     FAIR      71  27  19 SW15G26   29.92S
PINE BLUFFS    FAIR      64  36  34 S8        29.98F

$$




USA.gov is the U.S. government's official web portal to all federal, state and local government web resources and services.